QPF
0.06 0.07 0.08 0.08 0.06 0.07 0.06 0.04 0.03 0.04 0.04 0.04 0.03 0.02 0.02 0.02 0.01 0.01 0.02 0.04 0.07 0.09 0.10 0.09 0.08 0.07 0.05 0.05 0.05 0.04 0.03 0.04 0.05 0.03 0.02 0.02 0.02 0.01 0.01 0.02 0.03 0.03 0.02
0.04 0.03 0.03 0.04 0.03 0.03 0.03 0.02 0.03 0.03 0.03 0.04 0.04 0.03 0.02 0.02 0.02 0.02 0.03 0.04 0.06 0.06 0.08 0.10 0.08 0.08 0.08 0.07 0.07 0.07 0.07 0.06 0.06 0.03 0.03 0.03 0.02 0.02 0.01 0.01 0.01 0.02 0.02
0.03 0.02 0.03 0.03 0.03 0.03 0.02 0.02 0.03 0.03 0.03 0.03 0.03 0.03 0.03 0.02 0.01 0.02 0.02 0.03 0.05 0.06 0.04 0.04 0.05 0.05 0.07 0.08 0.07 0.07 0.07 0.06 0.06 0.04 0.04 0.02 0.02 0.01 0.01 0.01 0.01 0.02 0.03
0.01 0.02 0.02 0.02 0.03 0.03 0.03 0.04 0.03 0.02 0.03 0.03 0.02 0.02 0.02 0.02 0.03 0.03 0.02 0.02 0.02 0.04 0.04 0.03 0.03 0.04 0.05 0.06 0.06 0.06 0.06 0.05 0.04 0.04 0.03 0.03 0.03 0.03 0.02 0.02 0.02 0.02 0.03
0.01 0.01 0.01 0.02 0.03 0.03 0.04 0.04 0.04 0.03 0.04 0.03 0.02 0.02 0.01 0.02 0.03 0.04 0.03 0.02 0.02 0.02 0.02 0.03 0.03 0.02 0.02 0.03 0.03 0.05 0.07 0.05 0.04 0.03 0.03 0.05 0.05 0.05 0.04 0.03 0.02 0.02 0.04
0.01 0.01 0.01 0.02 0.03 0.03 0.03 0.03 0.04 0.04 0.03 0.03 0.02 0.01 0.01 0.02 0.02 0.03 0.02 0.02 0.02 0.02 0.02 0.03 0.03 0.03 0.02 0.03 0.02 0.03 0.05 0.04 0.04 0.04 0.03 0.03 0.04 0.04 0.03 0.02 0.02 0.02 0.02
0.01 0.02 0.02 0.03 0.04 0.03 0.02 0.02 0.03 0.03 0.03 0.02 0.02 0.02 0.01 0.01 0.01 0.01 0.02 0.03 0.03 0.03 0.02 0.01 0.02 0.02 0.03 0.03 0.04 0.04 0.03 0.04 0.03 0.04 0.04 0.03 0.03 0.03 0.03 0.03 0.03 0.03 0.02
0.02 0.02 0.03 0.05 0.07 0.06 0.03 0.02 0.03 0.03 0.03 0.03 0.02 0.02 0.01 0.01 0.01 0.01 0.01 0.01 0.02 0.03 0.03 0.03 0.02 0.02 0.03 0.03 0.04 0.05 0.05 0.05 0.04 0.04 0.04 0.05 0.04 0.05 0.06 0.05 0.07 0.06 0.05
0.05 0.05 0.06 0.05 0.05 0.05 0.05 0.04 0.04 0.03 0.03 0.02 0.02 0.02 0.01 0.01 0.01 0.01 0.00 0.00 0.01 0.01 0.01 0.02 0.02 0.02 0.02 0.02 0.03 0.05 0.05 0.04 0.04 0.04 0.04 0.04 0.04 0.05 0.06 0.06 0.07 0.08 0.07
0.04 0.04 0.04 0.04 0.04 0.04 0.04 0.04 0.03 0.03 0.03 0.03 0.02 0.01 0.01 0.00 0.00 0.01 0.00 0.01 0.01 0.01 0.01 0.01 0.01 0.01 0.01 0.01 0.02 0.03 0.03 0.03 0.04 0.04 0.03 0.03 0.03 0.05 0.06 0.06 0.06 0.06 0.05
0.04 0.04 0.06 0.06 0.08 0.07 0.06 0.06 0.06 0.06 0.06 0.05 0.04 0.03 0.02 0.02 0.02 0.01 0.01 0.01 0.01 0.01 0.01 0.01 0.01 0.01 0.01 0.02 0.02 0.03 0.03 0.04 0.04 0.03 0.03 0.04 0.03 0.04 0.05 0.06 0.06 0.04 0.04
0.07 0.06 0.06 0.06 0.07 0.10 0.09 0.09 0.10 0.10 0.09 0.07 0.06 0.05 0.05 0.04 0.03 0.02 0.01 0.01 0.01 0.01 0.02 0.02 0.02 0.02 0.02 0.02 0.02 0.01 0.02 0.02 0.03 0.04 0.04 0.03 0.04 0.04 0.05 0.04 0.04 0.04 0.03
0.12 0.11 0.09 0.06 0.06 0.06 0.07 0.07 0.07 0.06 0.06 0.06 0.05 0.04 0.04 0.05 0.05 0.03 0.01 0.01 0.01 0.01 0.02 0.02 0.02 0.03 0.03 0.03 0.02 0.02 0.02 0.02 0.02 0.03 0.04 0.03 0.02 0.03 0.03 0.03 0.04 0.03 0.04
0.07 0.12 0.12 0.10 0.08 0.06 0.06 0.07 0.06 0.05 0.06 0.05 0.04 0.04 0.03 0.03 0.03 0.02 0.01 0.01 0.01 0.01 0.02 0.03 0.02 0.02 0.03 0.04 0.03 0.02 0.02 0.03 0.03 0.03 0.04 0.03 0.02 0.02 0.02 0.02 0.02 0.02 0.03
0.02 0.05 0.07 0.07 0.07 0.07 0.07 0.07 0.07 0.06 0.05 0.04 0.04 0.03 0.02 0.02 0.02 0.02 0.01 0.01 0.00 0.00 0.01 0.03 0.03 0.02 0.03 0.03 0.03 0.03 0.03 0.03 0.03 0.03 0.03 0.03 0.03 0.03 0.02 0.01 0.01 0.02 0.02
0.02 0.02 0.04 0.05 0.06 0.07 0.07 0.07 0.07 0.06 0.04 0.02 0.02 0.03 0.02 0.02 0.02 0.02 0.01 0.00 0.00 0.00 0.00 0.01 0.03 0.03 0.03 0.03 0.03 0.04 0.03 0.02 0.02 0.02 0.02 0.02 0.03 0.02 0.02 0.02 0.02 0.02 0.03
0.03 0.03 0.04 0.05 0.06 0.08 0.10 0.10 0.10 0.07 0.04 0.03 0.02 0.02 0.02 0.02 0.01 0.01 0.01 0.01 0.01 0.01 0.01 0.01 0.01 0.02 0.02 0.02 0.02 0.02 0.02 0.03 0.02 0.02 0.02 0.01 0.01 0.02 0.01 0.02 0.03 0.03 0.03
0.02 0.02 0.02 0.04 0.05 0.09 0.13 0.10 0.10 0.09 0.07 0.06 0.04 0.03 0.02 0.02 0.03 0.02 0.03 0.03 0.02 0.01 0.01 0.01 0.01 0.01 0.03 0.03 0.03 0.03 0.04 0.05 0.04 0.03 0.02 0.01 0.01 0.01 0.01 0.02 0.03 0.03 0.03
0.04 0.03 0.04 0.05 0.08 0.11 0.13 0.12 0.10 0.09 0.09 0.09 0.07 0.06 0.04 0.03 0.03 0.02 0.03 0.03 0.02 0.01 0.01 0.01 0.01 0.01 0.03 0.04 0.04 0.04 0.05 0.05 0.05 0.04 0.03 0.02 0.01 0.01 0.01 0.01 0.02 0.02 0.02
0.04 0.05 0.06 0.06 0.07 0.12 0.14 0.16 0.15 0.11 0.08 0.08 0.08 0.07 0.06 0.04 0.03 0.03 0.03 0.03 0.02 0.01 0.01 0.01 0.00 0.01 0.02 0.04 0.04 0.03 0.04 0.04 0.04 0.03 0.02 0.02 0.02 0.02 0.02 0.01 0.01 0.01 0.01
0.03 0.05 0.06 0.06 0.06 0.05 0.07 0.10 0.13 0.11 0.09 0.08 0.08 0.07 0.06 0.04 0.04 0.04 0.05 0.05 0.04 0.03 0.03 0.02 0.02 0.02 0.02 0.03 0.03 0.03 0.03 0.03 0.03 0.02 0.02 0.02 0.02 0.01 0.01 0.01 0.01 0.01 0.02
0.03 0.04 0.04 0.03 0.03 0.03 0.03 0.04 0.04 0.05 0.06 0.06 0.06 0.06 0.06 0.06 0.06 0.07 0.07 0.08 0.10 0.08 0.06 0.05 0.04 0.03 0.03 0.03 0.03 0.03 0.03 0.03 0.03 0.02 0.01 0.01 0.01 0.01 0.01 0.01 0.01 0.02 0.02
0.04 0.04 0.03 0.02 0.02 0.02 0.02 0.02 0.02 0.03 0.03 0.04 0.04 0.04 0.05 0.06 0.07 0.07 0.08 0.11 0.14 0.13 0.11 0.08 0.05 0.04 0.03 0.03 0.02 0.03 0.04 0.03 0.02 0.01 0.01 0.02 0.02 0.02 0.01 0.02 0.01 0.02 0.01
0.03 0.03 0.02 0.02 0.02 0.02 0.02 0.02 0.02 0.02 0.03 0.03 0.03 0.03 0.04 0.05 0.06 0.06 0.07 0.09 0.14 0.17 0.15 0.10 0.07 0.05 0.04 0.02 0.01 0.01 0.02 0.02 0.01 0.01 0.02 0.02 0.02 0.02 0.01 0.01 0.01 0.01 0.01
0.02 0.02 0.02 0.01 0.01 0.01 0.02 0.02 0.02 0.03 0.03 0.03 0.03 0.03 0.04 0.05 0.05 0.06 0.06 0.07 0.06 0.07 0.09 0.09 0.07 0.05 0.04 0.03 0.01 0.01 0.01 0.02 0.02 0.02 0.01 0.01 0.01 0.01 0.00 0.00 0.01 0.01 0.01
0.02 0.02 0.02 0.02 0.02 0.02 0.03 0.03 0.04 0.04 0.04 0.04 0.05 0.06 0.05 0.05 0.06 0.06 0.05 0.06 0.05 0.05 0.04 0.05 0.06 0.05 0.03 0.02 0.02 0.02 0.02 0.03 0.03 0.02 0.01 0.01 0.01 0.01 0.01 0.01 0.01 0.01 0.01
MSLP
1006.82 1006.94 1007.01 1007.01 1006.94 1006.85 1006.76 1006.73 1006.81 1007.02 1007.36 1007.80 1008.30 1008.81 1009.28 1009.68 1009.99 1010.21 1010.37 1010.50 1010.65 1010.83 1011.06 1011.34 1011.66 1012.00 1012.32 1012.60 1012.83 1013.01 1013.12 1013.19 1013.21 1013.21 1013.19 1013.16 1013.12 1013.10 1013.09 1013.13 1013.22 1013.38 1013.63
1006.71 1006.87 1006.98 1006.99 1006.91 1006.78 1006.64 1006.55 1006.58 1006.76 1007.09 1007.56 1008.11 1008.69 1009.24 1009.71 1010.06 1010.32 1010.48 1010.59 1010.69 1010.82 1010.98 1011.21 1011.48 1011.78 1012.08 1012.37 1012.62 1012.82 1012.97 1013.08 1013.15 1013.18 1013.19 1013.17 1013.14 1013.10 1013.06 1013.05 1013.08 1013.18 1013.36
1006.37 1006.59 1006.76 1006.83 1006.79 1006.67 1006.52 1006.42 1006.43 1006.60 1006.93 1007.42 1008.02 1008.66 1009.27 1009.81 1010.22 1010.51 1010.68 1010.78 1010.84 1010.91 1011.01 1011.16 1011.35 1011.59 1011.84 1012.09 1012.33 1012.53 1012.71 1012.86 1012.98 1013.07 1013.13 1013.16 1013.16 1013.13 1013.08 1013.03 1013.01 1013.03 1013.14
1005.88 1006.17 1006.42 1006.58 1006.62 1006.57 1006.47 1006.39 1006.41 1006.59 1006.93 1007.44 1008.06 1008.73 1009.39 1009.98 1010.43 1010.75 1010.95 1011.04 1011.07 1011.09 1011.12 1011.19 1011.29 1011.44 1011.62 1011.81 1012.01 1012.21 1012.40 1012.58 1012.75 1012.91 1013.04 1013.13 1013.18 1013.18 1013.13 1013.06 1012.98 1012.94 1012.96
1005.41 1005.76 1006.10 1006.37 1006.51 1006.55 1006.53 1006.51 1006.56 1006.75 1007.10 1007.61 1008.23 1008.91 1009.58 1010.19 1010.67 1011.01 1011.22 1011.31 1011.33 1011.31 1011.28 1011.27 1011.30 1011.36 1011.45 1011.57 1011.71 1011.88 1012.06 1012.27 1012.48 1012.70 1012.90 1013.06 1013.17 1013.21 1013.17 1013.09 1012.97 1012.86 1012.80
1005.12 1005.51 1005.93 1006.29 1006.54 1006.68 1006.75 1006.79 1006.89 1007.09 1007.43 1007.91 1008.51 1009.16 1009.81 1010.40 1010.88 1011.22 1011.44 1011.54 1011.55 1011.51 1011.44 1011.38 1011.34 1011.32 1011.33 1011.37 1011.45 1011.57 1011.74 1011.96 1012.20 1012.46 1012.72 1012.95 1013.11 1013.19 1013.18 1013.09 1012.94 1012.78 1012.65
1005.16 1005.56 1006.02 1006.45 1006.78 1007.01 1007.15 1007.25 1007.37 1007.57 1007.88 1008.32 1008.84 1009.43 1010.02 1010.56 1011.01 1011.35 1011.56 1011.67 1011.68 1011.64 1011.56 1011.47 1011.38 1011.30 1011.24 1011.22 1011.24 1011.32 1011.46 1011.66 1011.91 1012.21 1012.50 1012.77 1012.98 1013.10 1013.11 1013.03 1012.87 1012.67 1012.49
1005.57 1005.96 1006.42 1006.87 1007.24 1007.51 1007.70 1007.83 1007.96 1008.14 1008.40 1008.76 1009.19 1009.68 1010.18 1010.65 1011.04 1011.35 1011.55 1011.66 1011.70 1011.67 1011.60 1011.50 1011.39 1011.28 1011.19 1011.11 1011.09 1011.11 1011.22 1011.39 1011.64 1011.93 1012.25 1012.54 1012.78 1012.93 1012.96 1012.89 1012.73 1012.52 1012.32
1006.35 1006.68 1007.10 1007.52 1007.88 1008.16 1008.34 1008.47 1008.58 1008.72 1008.92 1009.18 1009.51 1009.89 1010.28 1010.65 1010.97 1011.23 1011.42 1011.53 1011.59 1011.59 1011.55 1011.47 1011.38 1011.26 1011.15 1011.05 1010.98 1010.97 1011.03 1011.17 1011.39 1011.66 1011.97 1012.26 1012.51 1012.67 1012.73 1012.68 1012.53 1012.33 1012.13
1007.38 1007.63 1007.97 1008.32 1008.63 1008.86 1009.01 1009.11 1009.18 1009.26 1009.38 1009.55 1009.77 1010.03 1010.31 1010.58 1010.82 1011.03 1011.19 1011.31 1011.39 1011.43 1011.43 1011.40 1011.33 1011.24 1011.13 1011.02 1010.93 1010.88 1010.90 1011.00 1011.17 1011.41 1011.68 1011.96 1012.19 1012.36 1012.43 1012.40 1012.28 1012.11 1011.93
1008.52 1008.68 1008.91 1009.16 1009.37 1009.52 1009.62 1009.66 1009.69 1009.71 1009.76 1009.85 1009.97 1010.12 1010.29 1010.47 1010.64 1010.80 1010.94 1011.06 1011.16 1011.24 1011.29 1011.31 1011.28 1011.22 1011.14 1011.03 1010.93 1010.86 1010.85 1010.90 1011.02 1011.20 1011.42 1011.65 1011.86 1012.01 1012.08 1012.07 1011.99 1011.86 1011.73
1009.61 1009.67 1009.79 1009.91 1010.01 1010.08 1010.11 1010.10 1010.07 1010.05 1010.05 1010.07 1010.11 1010.18 1010.27 1010.37 1010.47 1010.58 1010.70 1010.82 1010.94 1011.06 1011.15 1011.22 1011.25 1011.23 1011.17 1011.09 1010.99 1010.90 1010.86 1010.86 1010.92 1011.04 1011.19 1011.36 1011.52 1011.64 1011.71 1011.71 1011.66 1011.58 1011.50
1010.54 1010.50 1010.50 1010.51 1010.50 1010.49 1010.45 1010.39 1010.34 1010.29 1010.25 1010.23 1010.22 1010.23 1010.25 1010.29 1010.34 1010.42 1010.51 1010.63 1010.76 1010.90 1011.04 1011.15 1011.22 1011.24 1011.22 1011.16 1011.07 1010.98 1010.90 1010.86 1010.86 1010.91 1011.00 1011.10 1011.20 1011.28 1011.33 1011.33 1011.31 1011.26 1011.23
1011.24 1011.11 1011.00 1010.90 1010.81 1010.72 1010.63 1010.55 1010.48 1010.42 1010.37 1010.32 1010.29 1010.26 1010.24 1010.23 1010.24 1010.28 1010.36 1010.46 1010.60 1010.76 1010.92 1011.06 1011.17 1011.23 1011.24 1011.21 1011.13 1011.04 1010.94 1010.87 1010.82 1010.81 1010.82 1010.86 1010.89 1010.92 1010.94 1010.93 1010.91 1010.90 1010.90
1011.68 1011.47 1011.27 1011.10 1010.94 1010.80 1010.68 1010.59 1010.51 1010.45 1010.40 1010.35 1010.30 1010.25 1010.20 1010.16 1010.14 1010.15 1010.20 1010.29 1010.42 1010.58 1010.75 1010.92 1011.05 1011.14 1011.18 1011.17 1011.12 1011.04 1010.94 1010.84 1010.76 1010.69 1010.65 1010.62 1010.59 1010.57 1010.54 1010.51 1010.49 1010.48 1010.51
1011.88 1011.60 1011.34 1011.10 1010.90 1010.73 1010.60 1010.50 1010.43 1010.38 1010.33 1010.28 1010.22 1010.15 1010.08 1010.01 1009.96 1009.94 1009.96 1010.04 1010.15 1010.31 1010.48 1010.65 1010.80 1010.92 1010.99 1011.01 1010.98 1010.92 1010.83 1010.74 1010.63 1010.54 1010.45 1010.36 1010.28 1010.20 1010.13 1010.07 1010.02 1010.01 1010.04
1011.87 1011.53 1011.23 1010.95 1010.72 1010.53 1010.39 1010.30 1010.23 1010.18 1010.13 1010.07 1010.00 1009.92 1009.82 1009.72 1009.64 1009.60 1009.59 1009.64 1009.74 1009.88 1010.04 1010.22 1010.38 1010.52 1010.62 1010.68 1010.69 1010.67 1010.61 1010.52 1010.43 1010.32 1010.20 1010.08 1009.95 1009.83 1009.71 1009.60 1009.53 1009.49 1009.51
1011.66 1011.29 1010.94 1010.65 1010.40 1010.20 1010.06 1009.96 1009.88 1009.83 1009.77 1009.70 1009.61 1009.50 1009.37 1009.25 1009.15 1009.07 1009.04 1009.07 1009.14 1009.27 1009.43 1009.60 1009.78 1009.94 1010.08 1010.18 1010.24 1010.26 1010.25 1010.21 1010.13 1010.03 1009.91 1009.77 1009.61 1009.44 1009.28 1009.13 1009.02 1008.95 1008.94
1011.28 1010.87 1010.51 1010.19 1009.93 1009.73 1009.57 1009.46 1009.37 1009.30 1009.22 1009.12 1009.01 1008.88 1008.73 1008.58 1008.45 1008.36 1008.31 1008.31 1008.38 1008.49 1008.65 1008.83 1009.03 1009.22 1009.40 1009.55 1009.67 1009.75 1009.80 1009.80 1009.76 1009.69 1009.57 1009.42 1009.24 1009.04 1008.83 1008.64 1008.49 1008.38 1008.33
1010.73 1010.31 1009.93 1009.60 1009.33 1009.11 1008.94 1008.80 1008.69 1008.59 1008.48 1008.36 1008.23 1008.07 1007.91 1007.75 1007.61 1007.50 1007.44 1007.44 1007.49 1007.61 1007.77 1007.97 1008.19 1008.42 1008.65 1008.86 1009.04 1009.19 1009.29 1009.35 1009.35 1009.30 1009.19 1009.04 1008.84 1008.61 1008.37 1008.14 1007.94 1007.80 1007.72
1010.04 1009.60 1009.20 1008.86 1008.57 1008.34 1008.14 1007.98 1007.85 1007.72 1007.59 1007.45 1007.29 1007.13 1006.96 1006.80 1006.66 1006.55 1006.50 1006.50 1006.56 1006.69 1006.87 1007.09 1007.35 1007.63 1007.90 1008.17 1008.42 1008.62 1008.78 1008.88 1008.92 1008.88 1008.78 1008.61 1008.39 1008.14 1007.87 1007.60 1007.37 1007.19 1007.08
1009.22 1008.77 1008.36 1008.01 1007.70 1007.44 1007.22 1007.03 1006.87 1006.72 1006.57 1006.42 1006.26 1006.10 1005.94 1005.80 1005.67 1005.59 1005.55 1005.57 1005.66 1005.80 1006.01 1006.27 1006.57 1006.89 1007.22 1007.54 1007.84 1008.09 1008.29 1008.42 1008.47 1008.43 1008.32 1008.13 1007.88 1007.60 1007.30 1007.01 1006.75 1006.55 1006.42
1008.33 1007.86 1007.45 1007.07 1006.74 1006.46 1006.21 1006.00 1005.81 1005.65 1005.50 1005.35 1005.20 1005.06 1004.93 1004.81 1004.72 1004.66 1004.65 1004.70 1004.82 1005.00 1005.24 1005.54 1005.88 1006.25 1006.62 1006.99 1007.33 1007.61 1007.82 1007.95 1007.99 1007.94 1007.79 1007.57 1007.29 1006.97 1006.64 1006.33 1006.07 1005.87 1005.74
1007.42 1006.95 1006.51 1006.11 1005.76 1005.44 1005.17 1004.94 1004.74 1004.57 1004.42 1004.29 1004.16 1004.05 1003.95 1003.87 1003.82 1003.80 1003.83 1003.91 1004.06 1004.27 1004.55 1004.89 1005.27 1005.68 1006.09 1006.49 1006.85 1007.14 1007.35 1007.46 1007.47 1007.37 1007.18 1006.92 1006.59 1006.24 1005.90 1005.58 1005.32 1005.13 1005.03
1006.57 1006.08 1005.62 1005.20 1004.81 1004.47 1004.17 1003.92 1003.71 1003.53 1003.39 1003.28 1003.18 1003.10 1003.04 1002.99 1002.97 1002.99 1003.05 1003.17 1003.35 1003.59 1003.91 1004.28 1004.69 1005.13 1005.57 1005.99 1006.35 1006.64 1006.83 1006.91 1006.87 1006.72 1006.48 1006.16 1005.80 1005.43 1005.07 1004.76 1004.52 1004.37 1004.30
1005.84 1005.33 1004.84 1004.39 1003.97 1003.59 1003.27 1002.99 1002.77 1002.59 1002.46 1002.36 1002.28 1002.23 1002.19 1002.17 1002.18 1002.22 1002.30 1002.44 1002.64 1002.91 1003.25 1003.64 1004.08 1004.54 1005.00 1005.42 1005.78 1006.05 1006.21 1006.25 1006.17 1005.97 1005.69 1005.33 1004.94 1004.56 1004.20 1003.92 1003.71 1003.60 1003.59
Thickness
5782 5781 5779 5778 5774 5771 5769 5767 5764 5762 5758 5754 5750 5748 5746 5745 5744 5743 5741 5740 5739 5737 5735 5734 5732 5731 5729 5727 5726 5724 5723 5722 5722 5720 5719 5720 5722 5722 5723 5724 5724 5724 5724
5776 5776 5776 5775 5772 5770 5768 5765 5763 5760 5758 5755 5751 5748 5745 5743 5741 5740 5739 5737 5736 5734 5733 5732 5731 5729 5726 5725 5724 5723 5720 5719 5719 5716 5713 5712 5714 5718 5721 5721 5722 5722 5722
5774 5773 5772 5772 5770 5768 5767 5765 5762 5759 5756 5753 5749 5745 5742 5740 5737 5736 5735 5735 5734 5732 5731 5731 5729 5727 5725 5722 5722 5721 5719 5716 5715 5715 5712 5708 5706 5710 5715 5717 5719 5719 5720
5773 5771 5770 5769 5768 5767 5766 5764 5761 5757 5754 5751 5747 5743 5739 5735 5734 5733 5732 5732 5731 5730 5729 5728 5726 5724 5723 5721 5720 5719 5717 5715 5712 5712 5712 5711 5710 5707 5707 5711 5714 5716 5717
5771 5770 5769 5769 5767 5765 5762 5760 5758 5754 5752 5749 5746 5742 5738 5735 5732 5730 5729 5729 5728 5727 5727 5725 5724 5722 5721 5719 5718 5717 5716 5714 5712 5710 5709 5708 5707 5707 5704 5704 5707 5711 5714
5769 5768 5767 5766 5763 5761 5759 5756 5753 5750 5748 5746 5743 5740 5736 5733 5730 5727 5725 5724 5724 5724 5723 5722 5721 5719 5718 5717 5716 5715 5714 5713 5711 5710 5708 5707 5705 5704 5702 5701 5702 5703 5708
5765 5763 5761 5761 5759 5757 5755 5753 5750 5747 5745 5743 5740 5737 5735 5732 5728 5725 5723 5721 5719 5719 5719 5719 5717 5717 5716 5715 5714 5713 5712 5711 5709 5708 5707 5706 5705 5704 5702 5700 5699 5699 5702
5761 5760 5759 5758 5756 5755 5753 5750 5747 5744 5742 5739 5737 5734 5732 5729 5727 5724 5721 5719 5717 5716 5716 5715 5714 5714 5713 5712 5711 5710 5709 5708 5707 5706 5705 5704 5703 5702 5701 5700 5697 5695 5696
5755 5755 5754 5754 5753 5751 5749 5747 5743 5740 5737 5736 5733 5730 5729 5726 5724 5721 5719 5716 5714 5714 5713 5712 5711 5710 5709 5708 5707 5706 5705 5704 5703 5702 5702 5701 5701 5700 5699 5698 5697 5694 5690
5749 5750 5749 5748 5748 5747 5745 5742 5739 5736 5733 5731 5729 5727 5725 5723 5720 5717 5714 5712 5711 5710 5709 5708 5707 5706 5705 5704 5703 5702 5701 5700 5699 5699 5698 5697 5696 5696 5695 5694 5693 5692 5689
5743 5744 5744 5744 5743 5741 5738 5735 5732 5729 5728 5726 5724 5722 5719 5717 5715 5712 5710 5708 5707 5706 5705 5703 5702 5701 5701 5700 5699 5699 5698 5697 5695 5695 5694 5692 5692 5690 5690 5688 5687 5686 5685
5739 5738 5737 5737 5735 5733 5732 5730 5726 5724 5723 5721 5719 5717 5713 5711 5709 5707 5705 5704 5703 5703 5701 5699 5697 5697 5696 5696 5695 5694 5694 5692 5691 5690 5689 5687 5687 5685 5684 5682 5681 5680 5679
5732 5731 5729 5729 5728 5726 5725 5722 5721 5719 5718 5714 5711 5709 5707 5705 5703 5702 5701 5700 5699 5698 5696 5695 5693 5692 5691 5692 5691 5690 5689 5688 5686 5685 5684 5682 5681 5679 5678 5677 5675 5674 5674
5724 5723 5721 5720 5720 5720 5719 5717 5715 5714 5711 5708 5705 5703 5701 5700 5698 5697 5696 5695 5694 5692 5691 5690 5689 5687 5687 5686 5686 5685 5683 5682 5681 5680 5679 5677 5676 5675 5673 5672 5670 5669 5667
5716 5717 5715 5714 5712 5711 5711 5710 5708 5706 5705 5702 5700 5698 5696 5694 5693 5692 5690 5689 5688 5687 5686 5684 5684 5682 5682 5681 5680 5679 5678 5676 5675 5674 5673 5672 5671 5670 5669 5668 5665 5664 5661
5710 5710 5709 5707 5705 5704 5703 5702 5701 5700 5698 5696 5695 5694 5691 5689 5687 5686 5685 5683 5682 5681 5680 5679 5678 5677 5677 5677 5675 5674 5672 5670 5669 5667 5667 5666 5665 5665 5663 5662 5661 5659 5657
5704 5703 5702 5701 5700 5698 5697 5695 5695 5694 5692 5691 5690 5688 5686 5684 5682 5681 5678 5677 5676 5675 5674 5673 5672 5671 5672 5671 5670 5669 5667 5665 5663 5662 5661 5661 5660 5658 5658 5656 5655 5654 5653
5698 5697 5695 5693 5692 5691 5690 5688 5687 5686 5685 5685 5684 5683 5680 5678 5676 5674 5673 5671 5670 5669 5668 5668 5667 5666 5666 5665 5664 5663 5661 5659 5658 5656 5656 5655 5654 5653 5652 5651 5649 5648 5647
5690 5689 5688 5686 5685 5683 5682 5680 5678 5678 5678 5677 5677 5676 5674 5671 5670 5668 5667 5666 5665 5664 5664 5663 5662 5661 5661 5660 5659 5657 5654 5653 5652 5651 5650 5650 5648 5647 5646 5644 5642 5642 5641
5681 5680 5679 5678 5676 5675 5674 5672 5670 5669 5669 5669 5669 5668 5667 5666 5665 5663 5662 5661 5660 5660 5659 5657 5657 5656 5655 5654 5653 5651 5649 5647 5646 5644 5644 5643 5642 5641 5639 5638 5636 5635 5635
5671 5671 5670 5669 5668 5666 5665 5664 5663 5661 5661 5662 5661 5661 5661 5660 5659 5658 5657 5656 5654 5653 5652 5652 5651 5650 5650 5649 5647 5646 5644 5642 5641 5639 5638 5637 5635 5634 5633 5632 5631 5630 5628
5662 5661 5659 5658 5658 5658 5657 5655 5654 5654 5654 5653 5653 5653 5653 5653 5653 5651 5650 5649 5647 5646 5645 5644 5644 5644 5643 5642 5641 5640 5639 5638 5636 5634 5632 5631 5629 5628 5627 5626 5625 5623 5621
5652 5651 5650 5649 5648 5648 5648 5646 5646 5647 5646 5645 5644 5644 5644 5644 5644 5643 5642 5640 5639 5638 5637 5637 5637 5637 5636 5635 5634 5633 5633 5631 5630 5628 5627 5625 5623 5621 5620 5619 5618 5616 5615
5643 5642 5641 5639 5638 5638 5638 5638 5638 5638 5637 5636 5635 5635 5635 5635 5635 5634 5634 5633 5631 5631 5630 5629 5629 5629 5627 5627 5626 5626 5625 5623 5622 5621 5619 5617 5615 5614 5613 5611 5610 5610 5609
5632 5632 5631 5630 5629 5629 5630 5630 5629 5629 5628 5627 5627 5626 5626 5626 5625 5625 5624 5625 5624 5623 5623 5622 5622 5621 5620 5620 5619 5618 5618 5617 5615 5613 5611 5609 5608 5606 5605 5604 5603 5602 5601
5623 5623 5622 5622 5621 5621 5621 5622 5622 5621 5619 5618 5618 5617 5617 5617 5617 5616 5615 5614 5615 5615 5614 5614 5615 5614 5614 5613 5611 5610 5609 5608 5606 5605 5604 5602 5601 5600 5598 5597 5596 5595 5594